Weather History for Winfield, KS

Change the Weather History Date:

Tuesday, November 13, 2012

  Actual Average Record
Temperature  
Mean Temperature 44 °F -  
Max Temperature 55 °F 56 °F 78 °F (1999)
Min Temperature 32 °F 37 °F 21 °F (2013)
Degree Days  
Heating Degree Days 22    
Moisture  
Dew Point 28 °F    
Average Humidity 58    
Maximum Humidity 82    
Minimum Humidity 34    
Precipitation  
Precipitation 0.00 in - - ()
Sea Level Pressure  
Sea Level Pressure 30.41 in    
Wind  
Wind Speed 7 mph (South)    
Max Wind Speed 13 mph    
Max Gust Speed -    
Visibility 10 miles    
Events      
Averages and records for this station are not official NWS values.
T = Trace of Precipitation, MM = Missing Value Source: NWS Daily Summary

Daily Weather History Graph

Daily Weather History Graph

Search for Another Location

Airport:

Trip Planner

Search our weather history database for the weather conditions in past years. The results will help you decide how hot, cold, wet, or windy it might be!

Date:

Astronomy

Nov. 13, 2012 Rise Set
Actual Time 7:05 AM CST 5:19 PM CST
Civil Twilight 6:37 AM CST 5:46 PM CST
Nautical Twilight 6:06 AM CST 6:18 PM CST
Astronomical Twilight 5:35 AM CST 6:48 PM CST
Moon 6:44 AM CST (11/13) 5:13 PM CST (11/13)
Length of Visible Light 11h 08m
Length of Day
10h 13m
Waning Crescent, 0% of the Moon is Illuminated
Nov 13
Waning Crescent
Nov 13
New
Nov 20
First Quarter
Nov 28
Full
Dec 6
Last Quarter

Hourly Weather History & Observations

Time (CST) Temp. Windchill Dew Point Humidity Pressure Visibility Wind Dir Wind Speed Gust Speed Precip Events Conditions
12:54 AM 37.0 °F 31.6 °F 27.0 °F 67% 30.47 in 10.0 mi South 6.9 mph - N/A   Clear
1:54 AM 35.1 °F 30.1 °F 27.0 °F 72% 30.46 in 10.0 mi SSW 5.8 mph - N/A   Clear
2:54 AM 34.0 °F 28.0 °F 27.0 °F 75% 30.46 in 10.0 mi South 6.9 mph - N/A   Clear
3:54 AM 32.0 °F 26.4 °F 27.0 °F 82% 30.45 in 10.0 mi South 5.8 mph - N/A   Clear
4:54 AM 32.0 °F 28.7 °F 27.0 °F 82% 30.45 in 10.0 mi SSE 3.5 mph - N/A   Clear
6:54 AM 32.0 °F 27.5 °F 26.1 °F 79% 30.47 in 10.0 mi SSE 4.6 mph - N/A   Clear
7:54 AM 34.0 °F 28.8 °F 28.0 °F 79% 30.48 in 10.0 mi SSE 5.8 mph - N/A   Clear
8:54 AM 39.9 °F 35.8 °F 30.9 °F 70% 30.48 in 10.0 mi South 5.8 mph - N/A   Clear
9:54 AM 45.0 °F 40.6 °F 32.0 °F 60% 30.48 in 10.0 mi SSW 8.1 mph - N/A   Clear
10:54 AM 51.1 °F - 30.9 °F 46% 30.46 in 10.0 mi SSW 8.1 mph - N/A   Clear
11:54 AM 52.0 °F - 30.9 °F 45% 30.44 in 10.0 mi SSW 10.4 mph - N/A   Clear
12:54 PM 54.0 °F - 30.9 °F 41% 30.40 in 10.0 mi SSW 10.4 mph - N/A   Clear
1:54 PM 55.0 °F - 28.0 °F 35% 30.36 in 10.0 mi South 10.4 mph - N/A   Clear
2:54 PM 54.0 °F - 27.0 °F 35% 30.33 in 10.0 mi South 12.7 mph - N/A   Clear
3:54 PM 54.0 °F - 26.1 °F 34% 30.32 in 10.0 mi South 10.4 mph - N/A   Clear
4:54 PM 48.9 °F - 30.0 °F 48% 30.33 in 10.0 mi South 5.8 mph - N/A   Clear
5:54 PM 48.0 °F - 26.1 °F 42% 30.35 in 10.0 mi SSE 4.6 mph - N/A   Clear
6:54 PM 46.0 °F 43.1 °F 28.0 °F 50% 30.36 in 10.0 mi SSE 5.8 mph - N/A   Clear
7:54 PM 44.1 °F 40.8 °F 27.0 °F 51% 30.37 in 10.0 mi SSE 5.8 mph - N/A   Clear
8:54 PM 41.0 °F 38.0 °F 28.9 °F 62% 30.39 in 10.0 mi SSE 4.6 mph - N/A   Clear
9:54 PM 43.0 °F 39.5 °F 27.0 °F 53% 30.38 in 10.0 mi SE 5.8 mph - N/A   Clear
10:54 PM 42.1 °F 38.4 °F 27.0 °F 55% 30.38 in 10.0 mi SE 5.8 mph - N/A   Clear
11:54 PM 39.0 °F 35.7 °F 27.0 °F 62% 30.37 in 10.0 mi SE 4.6 mph - N/A   Clear